Location: Unspecified
(0.0000°N, 0.0000°E)
Time: 07:03:06
(UTC+00:00)

Tiangong - Pass Details

Date: 05 November 2024
Orbit: 383 x 395 km, 41.5° (Epoch: 10 November)

Event Time Altitude Azimuth Distance (km) Brightness Sun altitude
Exits shadow 04:45:17 15° 339° (NNW) 1,139 -0.1 -14.0°
Maximum altitude 04:47:33 38° 44° (NE) 601 -1.0 -13.5°
Drops below altitude 10° 04:50:33 10° 114° (ESE) 1,408 2.2 -12.8°
Sets 04:52:42 0° 123° (ESE) 2,261 3.4 -12.2°
